| time (UTC) | temp F | wind direction | speed MPH | gust MPH | rain 1hr in | rain 24hr in | rain mn in | humidity % | barometer mb |
| 20260507131538 | 53 | 278 | 1.0 | 4.0 | 0.00 | 0.01 | 0.00 | 1 | 1007.1 |
| 20260507130037 | 51 | 355 | 3.0 | 8.0 | 0.00 | 0.01 | 0.00 | 1 | 1007.1 |
| 20260507124534 | 51 | 309 | 1.0 | 4.0 | 0.00 | 0.01 | 0.00 | 1 | 1007.2 |
| 20260507123021 | 50 | 338 | 0.0 | 3.0 | 0.00 | 0.01 | 0.00 | 1 | 1007.2 |
| 20260507121516 | 50 | 334 | 0.0 | 1.0 | 0.00 | 0.01 | 0.00 | 1 | 1007.5 |
| 20260507120011 | 49 | 334 | 0.0 | 2.0 | 0.00 | 0.01 | 0.00 | 1 | 1007.3 |
| 20260507114506 | 49 | 334 | 0.0 | 1.0 | 0.00 | 0.01 | 0.00 | 1 | 1007.0 |
| 20260507113007 | 49 | 334 | 0.0 | 1.0 | 0.00 | 0.01 | 0.00 | 1 | 1006.7 |
| 20260507111559 | 48 | 334 | 0.0 | 2.0 | 0.00 | 0.01 | 0.00 | 1 | 1007.2 |
| 20260507110055 | 48 | 336 | 0.0 | 2.0 | 0.00 | 0.01 | 0.00 | 1 | 1006.8 |
| 20260507104550 | 48 | 331 | 0.0 | 2.0 | 0.00 | 0.01 | 0.00 | 1 | 1006.5 |
| 20260507103052 | 48 | 355 | 1.0 | 4.0 | 0.00 | 0.01 | 0.00 | 1 | 1006.3 |
| 20260507101545 | 49 | 355 | 1.0 | 3.0 | 0.00 | 0.01 | 0.00 | 1 | 1006.6 |
| 20260507100037 | 49 | 360 | 1.0 | 5.0 | 0.00 | 0.01 | 0.00 | 1 | 1006.8 |
| 20260507094534 | 49 | 300 | 1.0 | 5.0 | 0.00 | 0.01 | 0.00 | 1 | 1006.4 |
| 20260507093033 | 49 | 360 | 1.0 | 4.0 | 0.00 | 0.01 | 0.00 | 1 | 1006.2 |
| 20260507091524 | 49 | 307 | 1.0 | 4.0 | 0.00 | 0.01 | 0.00 | 1 | 1006.1 |
| 20260507090019 | 49 | 288 | 0.0 | 2.0 | 0.00 | 0.01 | 0.00 | 1 | 1006.4 |
| 20260507084514 | 50 | 300 | 1.0 | 4.0 | 0.00 | 0.01 | 0.00 | 1 | 1005.8 |
| 20260507083011 | 50 | 324 | 1.0 | 6.0 | 0.00 | 0.01 | 0.00 | 1 | 1005.9 |
| 20260507081508 | 50 | 332 | 1.0 | 5.0 | 0.00 | 0.01 | 0.00 | 1 | 1006.0 |
| 20260507080003 | 51 | 298 | 2.0 | 8.0 | 0.00 | 0.01 | 0.00 | 1 | 1006.5 |
| 20260507074600 | 53 | 294 | 3.0 | 8.0 | 0.00 | 0.01 | 0.00 | 1 | 1006.0 |
| 20260507073055 | 55 | 275 | 5.0 | 12.0 | 0.00 | 0.01 | 0.00 | 1 | 1005.7 |
| 20260507071549 | 56 | 317 | 1.0 | 6.0 | 0.00 | 0.01 | 0.00 | 1 | 1004.7 |
| 20260507070046 | 56 | 337 | 2.0 | 5.0 | 0.00 | 0.01 | 0.00 | 1 | 1004.8 |
| 20260507064541 | 56 | 15 | 1.0 | 6.0 | 0.00 | 0.01 | 0.00 | 1 | 1004.9 |
| 20260507063041 | 57 | 73 | 1.0 | 4.0 | 0.00 | 0.01 | 0.00 | 1 | 1004.9 |
| 20260507061532 | 57 | 314 | 0.0 | 4.0 | 0.00 | 0.01 | 0.00 | 1 | 1004.9 |
| 20260507060027 | 57 | 226 | 0.0 | 0.0 | 0.00 | 0.01 | 0.00 | 1 | 1004.9 |
| 20260507054522 | 57 | 226 | 0.0 | 0.0 | 0.00 | 0.01 | 0.00 | 1 | 1005.1 |
| 20260507053018 | 57 | 226 | 0.0 | 0.0 | 0.00 | 0.01 | 0.00 | 1 | 1005.4 |
| 20260507051514 | 57 | 226 | 0.0 | 1.0 | 0.00 | 0.01 | 0.00 | 1 | 1005.5 |
| 20260507050014 | 57 | 226 | 0.0 | 1.0 | 0.00 | 0.01 | 0.00 | 1 | 1005.6 |
| 20260507044505 | 57 | 226 | 0.0 | 1.0 | 0.00 | 0.01 | 0.00 | 1 | 1005.6 |
| 20260507043001 | 57 | 226 | 0.0 | 2.0 | 0.00 | 0.01 | 0.00 | 1 | 1005.6 |
| 20260507041601 | 57 | 226 | 0.0 | 1.0 | 0.00 | 0.01 | 0.00 | 1 | 1005.3 |
| 20260507040052 | 57 | 226 | 0.0 | 1.0 | 0.00 | 0.01 | 0.00 | 1 | 1005.5 |
| 20260507034551 | 57 | 223 | 0.0 | 2.0 | 0.00 | 0.01 | 0.01 | 1 | 1005.3 |
| 20260507033045 | 57 | 226 | 1.0 | 4.0 | 0.00 | 0.01 | 0.01 | 1 | 1005.8 |
| 20260507031545 | 56 | 212 | 1.0 | 3.0 | 0.00 | 0.01 | 0.01 | 1 | 1005.6 |
| 20260507030036 | 56 | 216 | 0.0 | 4.0 | 0.00 | 0.01 | 0.01 | 1 | 1005.6 |
| 20260507024531 | 56 | 137 | 1.0 | 4.0 | 0.00 | 0.01 | 0.01 | 1 | 1005.4 |
| 20260507023027 | 56 | 231 | 1.0 | 4.0 | 0.00 | 0.01 | 0.01 | 1 | 1005.7 |
| 20260507021523 | 56 | 161 | 2.0 | 5.0 | 0.00 | 0.01 | 0.01 | 1 | 1005.4 |
| 20260507020034 | 56 | 184 | 1.0 | 3.0 | 0.00 | 0.01 | 0.01 | 1 | 1005.6 |
| 20260507014513 | 56 | 180 | 1.0 | 3.0 | 0.00 | 0.01 | 0.01 | 1 | 1005.6 |
| 20260507013008 | 56 | 228 | 2.0 | 6.0 | 0.00 | 0.01 | 0.01 | 1 | 1005.7 |
| 20260507011509 | 56 | 226 | 1.0 | 4.0 | 0.00 | 0.01 | 0.01 | 1 | 1005.9 |
| 20260507010001 | 56 | 223 | 1.0 | 4.0 | 0.00 | 0.01 | 0.01 | 1 | 1006.1 |
| 20260507004556 | 56 | 224 | 1.0 | 7.0 | 0.00 | 0.01 | 0.01 | 1 | 1006.0 |
| 20260507003106 | 56 | 234 | 2.0 | 5.0 | 0.00 | 0.01 | 0.01 | 1 | 1005.9 |
| 20260507001609 | 56 | 223 | 1.0 | 4.0 | 0.00 | 0.01 | 0.01 | 1 | 1005.9 |
| 20260507000045 | 56 | 168 | 3.0 | 7.0 | 0.00 | 0.01 | 0.01 | 1 | 1006.0 |
| 20260506234540 | 56 | 178 | 2.0 | 7.0 | 0.00 | 0.01 | 0.01 | 1 | 1005.9 |
| 20260506233035 | 56 | 185 | 2.0 | 5.0 | 0.00 | 0.01 | 0.01 | 1 | 1005.9 |
| 20260506231530 | 56 | 205 | 2.0 | 5.0 | 0.00 | 0.01 | 0.01 | 1 | 1005.9 |
| 20260506230038 | 56 | 204 | 2.0 | 5.0 | 0.00 | 0.01 | 0.01 | 1 | 1006.0 |
| 20260506224522 | 56 | 169 | 1.0 | 6.0 | 0.00 | 0.01 | 0.01 | 1 | 1005.8 |
| 20260506223026 | 56 | 172 | 3.0 | 7.0 | 0.00 | 0.01 | 0.01 | 1 | 1005.9 |
| 20260506221513 | 57 | 165 | 4.0 | 9.0 | 0.00 | 0.01 | 0.01 | 1 | 1006.0 |
| 20260506220009 | 57 | 218 | 2.0 | 6.0 | 0.00 | 0.01 | 0.01 | 1 | 1006.3 |
| 20260506214504 | 57 | 208 | 3.0 | 8.0 | 0.00 | 0.01 | 0.01 | 1 | 1006.3 |
| 20260506213105 | 58 | 201 | 2.0 | 7.0 | 0.00 | 0.01 | 0.01 | 1 | 1006.4 |
| 20260506211556 | 58 | 153 | 2.0 | 9.0 | 0.00 | 0.01 | 0.01 | 1 | 1006.5 |
| 20260506210057 | 58 | 202 | 2.0 | 8.0 | 0.00 | 0.01 | 0.01 | 1 | 1006.5 |
| 20260506204550 | 59 | 162 | 3.0 | 7.0 | 0.00 | 0.01 | 0.01 | 1 | 1006.6 |
| 20260506203043 | 59 | 211 | 3.0 | 6.0 | 0.01 | 0.01 | 0.01 | 1 | 1006.8 |
| 20260506201538 | 60 | 221 | 2.0 | 7.0 | 0.01 | 0.01 | 0.01 | 1 | 1006.8 |
| 20260506200034 | 60 | 208 | 2.0 | 9.0 | 0.01 | 0.01 | 0.01 | 1 | 1006.9 |
| 20260506194529 | 61 | 219 | 2.0 | 5.0 | 0.00 | 0.00 | 0.00 | 1 | 1007.0 |
| 20260506193034 | 62 | 222 | 1.0 | 12.0 | 0.00 | 0.00 | 0.00 | 1 | 1007.2 |
| 20260506191521 | 64 | 202 | 2.0 | 6.0 | 0.00 | 0.00 | 0.00 | 10 | 1007.1 |
| 20260506190017 | 64 | 170 | 2.0 | 14.0 | 0.00 | 0.00 | 0.00 | 26 | 1007.1 |
| 20260506184511 | 64 | 159 | 4.0 | 11.0 | 0.00 | 0.00 | 0.00 | 30 | 1007.2 |
| 20260506183007 | 65 | 214 | 5.0 | 10.0 | 0.00 | 0.00 | 0.00 | 36 | 1007.4 |
| 20260506181503 | 65 | 159 | 5.0 | 12.0 | 0.00 | 0.00 | 0.00 | 39 | 1007.6 |
| 20260506180100 | 66 | 207 | 5.0 | 11.0 | 0.00 | 0.00 | 0.00 | 41 | 1007.6 |
| 20260506174554 | 67 | 190 | 4.0 | 14.0 | 0.00 | 0.00 | 0.00 | 44 | 1007.7 |
| 20260506173058 | 68 | 219 | 4.0 | 13.0 | 0.00 | 0.00 | 0.00 | 46 | 1008.2 |
| 20260506171546 | 67 | 160 | 4.0 | 9.0 | 0.00 | 0.00 | 0.00 | 45 | 1008.1 |
| 20260506170046 | 68 | 236 | 5.0 | 15.0 | 0.00 | 0.00 | 0.00 | 47 | 1007.9 |
| 20260506164551 | 68 | 229 | 4.0 | 13.0 | 0.00 | 0.00 | 0.00 | 43 | 1008.3 |
| 20260506163037 | 67 | 112 | 2.0 | 14.0 | 0.00 | 0.00 | 0.00 | 44 | 1008.4 |
| 20260506161529 | 67 | 225 | 4.0 | 8.0 | 0.00 | 0.00 | 0.00 | 42 | 1008.5 |
| 20260506160026 | 67 | 149 | 3.0 | 8.0 | 0.00 | 0.00 | 0.00 | 41 | 1008.8 |
| 20260506154520 | 67 | 196 | 5.0 | 10.0 | 0.00 | 0.00 | 0.00 | 42 | 1009.0 |
| 20260506153016 | 67 | 229 | 4.0 | 10.0 | 0.00 | 0.00 | 0.00 | 40 | 1009.2 |
| 20260506151514 | 67 | 167 | 3.0 | 8.0 | 0.00 | 0.00 | 0.00 | 38 | 1009.2 |
| 20260506150007 | 66 | 225 | 3.0 | 9.0 | 0.00 | 0.00 | 0.00 | 35 | 1009.3 |
| 20260506144502 | 65 | 159 | 3.0 | 8.0 | 0.00 | 0.00 | 0.00 | 30 | 1009.3 |
| 20260506143059 | 66 | 155 | 2.0 | 9.0 | 0.00 | 0.00 | 0.00 | 31 | 1009.2 |
| 20260506141554 | 66 | 161 | 3.0 | 8.0 | 0.00 | 0.00 | 0.00 | 34 | 1009.4 |
| 20260506140050 | 66 | 215 | 3.0 | 8.0 | 0.00 | 0.00 | 0.00 | 38 | 1009.1 |
| 20260506134544 | 66 | 144 | 3.0 | 7.0 | 0.00 | 0.00 | 0.00 | 28 | 1009.3 |
| 20260506133052 | 65 | 224 | 3.0 | 6.0 | 0.00 | 0.00 | 0.00 | 17 | 1009.9 |